Vorticity
4 10 7 6 8 8 9 10 11 9 6 8 11 12 5 1 5 8 14 7 7 12 12 9 7 7 8 9 7 6 5 5 6 5 5 6 5 4 3 4 5 5 5 4 4
6 12 15 17 15 12 8 4 2 3 5 2 4 7 8 5 6 12 6 8 6 6 8 13 14 9 7 7 8 7 6 6 5 5 5 3 5 3 4 5 5 5 5 5 4
9 11 8 7 9 8 10 10 10 6 5 8 8 3 8 9 4 1 5 9 12 9 9 10 9 13 9 9 7 6 8 6 6 6 5 6 6 5 6 9 6 6 6 9 7
7 5 4 4 7 7 6 7 9 10 11 10 6 8 7 11 12 12 10 6 7 8 5 7 9 8 10 10 9 10 9 9 10 9 8 9 8 8 8 8 8 8 7 4 6
4 4 4 4 6 6 6 10 9 4 12 7 7 8 14 11 5 11 9 9 4 4 7 5 10 12 14 13 12 10 9 9 9 9 9 9 10 9 10 8 9 5 8 6 5
2 2 3 4 5 3 4 4 6 3 2 6 13 9 6 14 9 9 9 12 7 10 7 10 7 9 11 14 12 10 9 10 9 10 8 8 7 8 8 8 7 6 6 7 6
4 3 3 4 4 10 12 10 7 5 4 6 10 8 11 5 11 12 11 15 13 5 6 10 11 8 10 9 12 8 6 6 8 8 9 9 6 8 8 6 8 6 7 10 11
8 9 10 12 9 4 2 8 11 8 6 6 9 11 10 8 5 9 11 10 7 14 11 15 11 11 10 9 8 5 4 7 4 6 6 7 3 6 9 7 6 7 7 8 10
5 9 10 4 4 3 6 4 6 13 12 13 11 12 9 11 10 7 4 4 11 5 8 11 15 10 7 9 7 6 9 4 9 3 7 10 6 16 8 8 8 8 8 7 9
9 14 13 15 12 9 5 7 12 14 9 16 14 14 9 7 13 5 13 16 15 12 12 17 16 13 11 11 9 6 3 8 8 8 10 7 5 11 8 8 9 9 9 9 10
23 22 20 11 8 6 12 19 14 11 14 14 17 10 15 11 10 6 3 13 14 10 10 4 13 17 12 11 10 7 10 7 7 11 6 6 5 6 8 7 5 7 7 8 11
13 7 9 9 8 12 15 13 11 11 10 10 8 11 12 16 14 9 9 5 12 14 14 18 15 9 14 13 10 10 8 10 8 12 9 7 8 7 10 9 8 7 8 11 11
18 15 14 13 12 10 9 7 11 8 10 7 8 7 4 14 15 9 8 5 10 14 11 11 13 14 12 11 10 9 9 8 6 8 7 10 8 7 8 9 10 11 13 16 15
10 8 7 8 14 11 11 17 24 22 14 9 8 6 6 3 15 9 6 8 14 12 9 9 12 10 11 11 10 8 7 6 7 9 7 6 10 10 13 12 11 12 13 11 11
14 22 27 29 27 33 30 28 21 16 20 42 32 14 7 6 10 12 9 12 7 6 9 11 12 12 14 12 10 11 7 8 8 8 7 7 9 11 14 15 13 11 10 12 9
30 30 29 24 16 15 11 14 21 38 25 8 22 28 18 19 9 7 6 7 4 6 12 14 7 10 11 9 10 11 10 8 8 9 9 8 9 13 18 14 13 12 13 11 11
24 14 12 14 14 11 19 28 35 26 13 26 27 28 17 14 23 11 11 5 9 8 9 9 9 8 8 10 9 10 10 9 10 6 7 11 15 18 19 12 12 11 10 11 8
10 12 13 15 14 30 52 45 -2 9 3 19 16 29 13 16 6 8 9 7 9 11 10 9 12 10 9 10 10 11 11 8 7 6 6 12 14 20 10 10 10 5 12 10 11
7 10 21 21 38 38 21 -2 5 9 -4 -14 26 11 18 10 11 15 10 6 10 7 7 8 8 9 9 10 8 10 8 8 8 5 9 14 13 13 16 12 9 11 11 13 17
14 18 20 38 17 23 -0 11 38 4 8 4 17 17 -3 19 9 4 7 8 9 8 7 8 9 8 10 10 11 10 8 8 7 10 15 17 12 18 10 8 8 14 17 13 17
22 14 36 33 13 16 8 -9 19 20 24 15 1 19 11 3 11 11 13 11 11 8 6 8 8 10 11 10 9 10 7 7 8 12 16 11 13 10 11 9 16 16 18 8 6
19 28 30 10 -3 1 16 7 10 9 16 17 10 7 38 6 9 13 12 12 12 8 7 7 8 11 8 8 9 9 10 10 12 12 14 12 7 12 9 10 21 6 13 1 4
15 40 32 -2 14 -7 3 16 12 22 5 5 20 -4 10 24 9 11 11 11 7 9 5 7 12 6 10 11 9 10 12 16 17 12 15 8 10 8 6 15 17 12 -4 1 21
22 53 14 6 -1 2 5 22 11 5 6 25 13 9 12 13 11 14 13 8 9 5 8 10 6 7 8 9 7 4 17 19 14 14 13 7 9 7 9 26 11 3 8 18 10
27 53 6 24 17 6 6 -1 6 21 12 -2 18 15 15 15 14 13 11 9 6 7 6 6 5 7 10 12 9 11 23 13 12 10 10 6 9 8 20 15 -1 7 6 20 11
31 51 1 -0 2 8 12 8 19 20 22 14 19 23 16 18 14 13 8 6 4 4 5 7 9 11 11 10 17 25 18 14 7 12 9 14 7 10 31 -1 0 7 8 15 13
26 38 12 13 8 -1 3 28 12 3 8 17 20 17 17 15 11 7 5 4 5 5 7 7 12 12 22 19 14 26 16 7 14 10 10 8 11 29 14 -3 6 7 7 13 8
Height
5760 5757 5754 5750 5748 5745 5741 5739 5737 5734 5734 5732 5733 5733 5732 5731 5729 5728 5727 5728 5728 5728 5729 5729 5730 5731 5732 5732 5732 5732 5734 5737 5739 5741 5738 5743 5742 5743 5744 5745 5747 5748 5747 5749 5752
5753 5748 5745 5742 5739 5737 5733 5730 5726 5724 5723 5722 5721 5722 5722 5721 5720 5718 5718 5717 5718 5718 5718 5718 5718 5719 5720 5721 5722 5722 5724 5726 5727 5730 5731 5733 5733 5734 5735 5736 5738 5738 5739 5740 5743
5743 5740 5736 5732 5729 5727 5724 5721 5718 5716 5713 5712 5710 5711 5710 5709 5709 5710 5709 5708 5708 5708 5708 5708 5708 5709 5709 5710 5712 5712 5715 5713 5718 5718 5721 5722 5725 5725 5726 5727 5726 5729 5728 5731 5732
5737 5731 5728 5723 5720 5717 5714 5712 5708 5704 5703 5701 5699 5698 5698 5699 5698 5698 5699 5699 5699 5698 5698 5698 5698 5698 5699 5700 5701 5703 5702 5704 5705 5708 5710 5712 5714 5715 5716 5717 5717 5719 5718 5722 5723
5727 5723 5719 5715 5710 5707 5704 5701 5699 5696 5692 5690 5688 5688 5688 5688 5687 5688 5686 5687 5688 5689 5688 5687 5688 5687 5688 5690 5691 5692 5693 5694 5695 5698 5699 5701 5703 5704 5707 5706 5706 5709 5710 5710 5712
5716 5712 5707 5704 5700 5696 5694 5690 5688 5684 5682 5680 5677 5675 5676 5676 5678 5676 5675 5675 5676 5677 5677 5677 5677 5678 5678 5679 5681 5684 5683 5684 5685 5687 5689 5691 5693 5692 5695 5695 5697 5697 5700 5700 5701
5703 5699 5694 5691 5687 5683 5680 5678 5675 5672 5670 5668 5666 5664 5664 5663 5664 5665 5665 5665 5666 5666 5665 5666 5667 5668 5670 5669 5672 5673 5676 5676 5676 5677 5678 5680 5683 5683 5684 5687 5686 5687 5688 5690 5690
5689 5683 5679 5676 5672 5668 5664 5662 5660 5659 5656 5655 5654 5652 5653 5655 5652 5652 5653 5653 5655 5655 5655 5655 5656 5657 5659 5661 5662 5664 5666 5667 5668 5667 5669 5671 5673 5672 5673 5675 5677 5677 5677 5678 5678
5671 5666 5662 5659 5655 5652 5650 5646 5644 5643 5641 5640 5639 5639 5640 5643 5642 5640 5641 5641 5643 5644 5644 5644 5646 5647 5650 5651 5653 5655 5657 5658 5657 5660 5660 5660 5663 5662 5663 5664 5666 5666 5666 5667 5667
5652 5648 5643 5640 5638 5635 5633 5631 5627 5626 5626 5625 5625 5627 5628 5628 5629 5630 5631 5631 5632 5633 5633 5634 5635 5637 5639 5641 5645 5644 5647 5647 5648 5650 5651 5652 5653 5651 5653 5655 5655 5655 5655 5655 5655
5633 5630 5626 5622 5620 5618 5616 5614 5610 5608 5611 5613 5611 5614 5613 5616 5617 5619 5621 5621 5621 5623 5623 5624 5625 5627 5628 5631 5633 5636 5636 5638 5637 5638 5642 5642 5643 5643 5642 5643 5643 5643 5643 5645 5644
5618 5613 5609 5605 5603 5599 5596 5594 5593 5591 5592 5598 5600 5601 5602 5604 5607 5609 5611 5612 5613 5612 5613 5615 5615 5616 5619 5621 5623 5625 5627 5628 5629 5628 5630 5630 5634 5632 5633 5633 5632 5632 5632 5634 5633
5602 5596 5592 5588 5585 5581 5578 5577 5575 5573 5572 5584 5586 5590 5591 5593 5596 5599 5600 5602 5604 5604 5604 5605 5606 5608 5609 5612 5614 5615 5617 5618 5620 5620 5620 5619 5622 5623 5623 5622 5621 5622 5623 5622 5622
5587 5581 5574 5570 5568 5564 5560 5557 5556 5552 5549 5563 5571 5574 5579 5583 5585 5589 5591 5594 5595 5596 5597 5598 5599 5599 5601 5603 5605 5606 5609 5609 5610 5610 5610 5613 5611 5612 5614 5612 5612 5613 5613 5613 5613
5569 5561 5554 5548 5548 5545 5542 5538 5538 5537 5533 5539 5546 5557 5565 5571 5578 5580 5583 5585 5587 5589 5590 5590 5591 5592 5594 5596 5597 5599 5600 5601 5601 5601 5602 5602 5600 5602 5604 5603 5604 5604 5604 5605 5604
5552 5544 5539 5535 5533 5531 5527 5526 5526 5526 5520 5527 5534 5541 5551 5558 5564 5570 5574 5577 5580 5581 5582 5583 5585 5586 5588 5589 5590 5592 5593 5594 5593 5593 5594 5595 5592 5594 5596 5595 5596 5596 5597 5596 5595
5541 5535 5529 5525 5522 5518 5515 5513 5514 5513 5518 5521 5525 5531 5539 5547 5553 5559 5565 5569 5572 5574 5576 5577 5578 5580 5581 5583 5584 5585 5586 5586 5586 5587 5587 5586 5584 5587 5587 5587 5587 5587 5587 5586 5586
5534 5528 5521 5516 5510 5505 5502 5504 5507 5512 5516 5518 5520 5525 5531 5538 5543 5549 5555 5560 5563 5566 5568 5570 5572 5573 5575 5576 5578 5578 5580 5580 5578 5579 5578 5577 5577 5580 5578 5579 5579 5578 5578 5578 5579
5528 5521 5514 5508 5501 5498 5500 5503 5506 5508 5511 5515 5515 5519 5524 5530 5537 5541 5546 5551 5556 5559 5562 5564 5565 5567 5568 5570 5571 5572 5572 5572 5571 5572 5570 5571 5573 5573 5572 5572 5572 5571 5571 5572 5572
5522 5514 5507 5501 5499 5498 5498 5502 5503 5506 5507 5509 5512 5515 5521 5525 5529 5534 5538 5545 5550 5553 5556 5558 5559 5560 5562 5563 5564 5564 5565 5565 5564 5564 5563 5564 5565 5565 5566 5566 5566 5565 5565 5565 5566
5514 5506 5501 5498 5499 5499 5499 5500 5501 5501 5502 5504 5506 5511 5514 5516 5522 5527 5533 5539 5544 5547 5550 5551 5553 5555 5555 5556 5557 5557 5558 5558 5557 5557 5557 5558 5559 5560 5560 5560 5560 5559 5559 5560 5561
5508 5501 5497 5496 5498 5498 5498 5498 5498 5498 5499 5501 5504 5507 5510 5514 5518 5522 5528 5533 5538 5542 5544 5546 5547 5548 5550 5550 5550 5550 5550 5550 5550 5551 5551 5552 5555 5553 5554 5554 5553 5554 5555 5556 5556
5502 5496 5494 5494 5495 5496 5495 5495 5495 5496 5497 5498 5500 5503 5505 5508 5514 5517 5523 5529 5533 5537 5539 5541 5543 5543 5544 5544 5544 5543 5543 5542 5543 5543 5546 5546 5549 5549 5548 5548 5549 5550 5552 5552 5551
5496 5491 5490 5490 5490 5491 5492 5493 5494 5494 5495 5495 5496 5499 5502 5505 5510 5514 5520 5525 5529 5532 5535 5536 5538 5538 5538 5537 5537 5537 5536 5536 5537 5538 5541 5542 5543 5543 5543 5544 5545 5548 5548 5548 5547
5489 5486 5486 5487 5487 5488 5489 5491 5491 5492 5492 5492 5494 5496 5500 5504 5508 5512 5518 5522 5526 5528 5530 5532 5533 5532 5531 5531 5530 5530 5530 5530 5532 5535 5534 5539 5539 5538 5539 5540 5543 5545 5546 5545 5544
5482 5480 5482 5483 5484 5486 5487 5488 5489 5490 5491 5491 5492 5494 5498 5502 5507 5512 5516 5520 5523 5525 5526 5527 5527 5526 5525 5524 5523 5523 5524 5526 5529 5530 5531 5533 5535 5534 5536 5538 5541 5543 5543 5542 5542
5477 5474 5476 5480 5481 5484 5485 5485 5487 5489 5490 5490 5491 5494 5498 5503 5507 5512 5515 5518 5521 5522 5522 5522 5521 5521 5519 5518 5518 5519 5521 5523 5525 5526 5528 5529 5530 5531 5533 5536 5539 5540 5540 5540 5540